User: anonymous   Login
Location: Boiro
(42.6475°N, 8.8834°W)
Time: 06:44:37
(UTC+01:00)
Language:

ESTCUBE 1 - Orbit

View from above orbital plane
View from above orbital plane
View from above satellite
View from above satellite

Ground track
Ground track

The orbit data is extracted from the following two-line orbital elements,

1 39161U 13021C   22026.70083019  .00000467  00000-0  80922-4 0  9999
2 39161  97.9220 107.5824 0009833 149.6716 210.5012 14.72650053468603
Epoch (UTC): 26 January 2022 16:49:11
Eccentricity: 0.0009833
inclination: 97.9220°
perigee height: 646 km
apogee height: 659 km
right ascension of ascending node: 107.5824°
argument of perigee: 149.6716°
revolutions per day: 14.72650053
mean anomaly at epoch: 210.5012°
orbit number at epoch: 46860

The dashed part of the orbit path shows where the satellite is in the earth's shadow,  

DLR